Terminal Aerodrome Forecast
Issued by NWS

Home | Current Version | Previous Version | Text Only | Print | Product List | Glossary On
Versions: 1 2 3 4 5 6 7 8 9 10 11 12 13 14 15 16 17 18 19 20 21 22 23 24 25 26 27 28
000
FTUS46 KOTX 222331
TAFCOE
TAF
KCOE 222331Z 2300/2324 26007KT P6SM BKN250
     FM230900 13003KT P6SM BKN015
     FM231500 VRB03KT P6SM SCT015 OVC060
     FM232100 17005KT P6SM OVC025
      AMD LTD TO CLD AND VIS=

USA.gov is the U.S. government's official web portal to all federal, state and local government web resources and services.